TimeCDT,TemperatureF,Dew PointF,Humidity,Sea Level PressureIn,VisibilityMPH,Wind Direction,Wind SpeedMPH,Gust SpeedMPH,PrecipitationIn,Events,Conditions,WindDirDegrees,DateUTC
12:15 AM,26.6,19.4,74,30.29,10.0,SE,5.8,-,N/A,,Clear,140,2013-03-28 05:15:00
12:35 AM,26.6,19.4,74,30.29,10.0,SSE,4.6,-,N/A,,Clear,150,2013-03-28 05:35:00
12:56 AM,26.6,19.4,74,30.28,10.0,SE,5.8,-,N/A,,Clear,130,2013-03-28 05:56:00
1:15 AM,26.6,19.4,74,30.28,10.0,SE,4.6,-,N/A,,Clear,140,2013-03-28 06:15:00
1:35 AM,26.6,19.4,74,30.28,10.0,SE,6.9,-,N/A,,Clear,140,2013-03-28 06:35:00
1:56 AM,26.6,19.4,74,30.28,10.0,SE,5.8,-,N/A,,Clear,140,2013-03-28 06:56:00
2:15 AM,26.6,19.4,74,30.28,10.0,ESE,4.6,-,N/A,,Scattered Clouds,120,2013-03-28 07:15:00
2:35 AM,26.6,19.4,74,30.28,10.0,SE,4.6,-,N/A,,Clear,130,2013-03-28 07:35:00
2:56 AM,24.8,19.4,80,30.28,10.0,SSE,4.6,-,N/A,,Scattered Clouds,150,2013-03-28 07:56:00
3:15 AM,24.8,19.4,80,30.27,10.0,SE,6.9,-,N/A,,Scattered Clouds,140,2013-03-28 08:15:00
3:35 AM,21.2,17.6,86,30.28,10.0,SSE,6.9,-,N/A,,Clear,150,2013-03-28 08:35:00
3:56 AM,23.0,19.4,86,30.27,10.0,SE,5.8,-,N/A,,Clear,140,2013-03-28 08:56:00
4:16 AM,23.0,19.4,86,30.27,10.0,SE,5.8,-,N/A,,Clear,140,2013-03-28 09:16:00
4:35 AM,21.2,17.6,86,30.27,10.0,SE,5.8,-,N/A,,Clear,140,2013-03-28 09:35:00
4:56 AM,23.0,19.4,86,30.27,10.0,SE,6.9,-,N/A,,Clear,140,2013-03-28 09:56:00
5:16 AM,23.0,19.4,86,30.26,10.0,ESE,5.8,-,N/A,,Clear,120,2013-03-28 10:16:00
5:35 AM,24.8,19.4,80,30.26,10.0,SE,5.8,-,N/A,,Scattered Clouds,140,2013-03-28 10:35:00
5:56 AM,24.8,19.4,80,30.26,10.0,SE,6.9,-,N/A,,Scattered Clouds,140,2013-03-28 10:56:00
6:16 AM,26.6,19.4,74,30.26,10.0,SE,5.8,-,N/A,,Mostly Cloudy,130,2013-03-28 11:16:00
6:35 AM,26.6,19.4,74,30.26,10.0,SE,6.9,-,N/A,,Overcast,140,2013-03-28 11:35:00
6:56 AM,26.6,21.2,80,30.26,10.0,SE,9.2,-,N/A,,Scattered Clouds,140,2013-03-28 11:56:00
7:15 AM,26.6,21.2,80,30.26,10.0,SE,8.1,-,N/A,,Scattered Clouds,140,2013-03-28 12:15:00
7:35 AM,26.6,21.2,80,30.26,10.0,SE,8.1,-,N/A,,Scattered Clouds,140,2013-03-28 12:35:00
7:55 AM,26.6,21.2,80,30.26,10.0,SE,8.1,-,N/A,,Clear,140,2013-03-28 12:55:00
8:15 AM,26.6,21.2,80,30.26,10.0,SE,8.1,-,N/A,,Clear,140,2013-03-28 13:15:00
8:36 AM,28.4,21.2,74,30.27,10.0,SE,8.1,-,N/A,,Clear,140,2013-03-28 13:36:00
8:55 AM,28.4,23.0,80,30.27,10.0,SSE,8.1,-,N/A,,Clear,160,2013-03-28 13:55:00
9:15 AM,28.4,23.0,80,30.27,10.0,SSE,6.9,-,N/A,,Clear,150,2013-03-28 14:15:00
9:36 AM,30.2,24.8,80,30.27,10.0,SE,9.2,-,N/A,,Clear,140,2013-03-28 14:36:00
9:55 AM,30.2,24.8,80,30.27,10.0,SE,9.2,-,N/A,,Clear,140,2013-03-28 14:55:00
10:15 AM,32.0,26.6,80,30.27,10.0,SE,9.2,-,N/A,,Clear,140,2013-03-28 15:15:00
10:36 AM,32.0,26.6,80,30.26,10.0,SE,10.4,-,N/A,,Clear,140,2013-03-28 15:36:00
10:55 AM,32.0,26.6,80,30.26,10.0,SE,8.1,-,N/A,,Scattered Clouds,140,2013-03-28 15:55:00
11:15 AM,33.8,26.6,75,30.26,10.0,SE,9.2,-,N/A,,Scattered Clouds,140,2013-03-28 16:15:00
11:36 AM,35.6,26.6,70,30.26,10.0,SSE,13.8,-,N/A,,Clear,160,2013-03-28 16:36:00
11:55 AM,35.6,26.6,70,30.26,10.0,SSE,10.4,-,N/A,,Clear,150,2013-03-28 16:55:00
12:15 PM,35.6,26.6,70,30.26,10.0,SE,10.4,-,N/A,,Clear,140,2013-03-28 17:15:00
12:36 PM,35.6,26.6,70,30.26,10.0,SE,11.5,-,N/A,,Clear,130,2013-03-28 17:36:00
12:55 PM,35.6,26.6,70,30.25,10.0,SE,12.7,-,N/A,,Clear,140,2013-03-28 17:55:00
1:15 PM,37.4,26.6,65,30.25,10.0,SE,12.7,-,N/A,,Clear,140,2013-03-28 18:15:00
1:35 PM,37.4,26.6,65,30.25,10.0,SE,10.4,-,N/A,,Clear,140,2013-03-28 18:35:00
1:56 PM,37.4,26.6,65,30.24,10.0,SE,13.8,-,N/A,,Clear,140,2013-03-28 18:56:00
2:15 PM,37.4,26.6,65,30.24,10.0,SE,13.8,17.3,N/A,,Clear,140,2013-03-28 19:15:00
2:35 PM,37.4,26.6,65,30.24,10.0,SE,11.5,-,N/A,,Clear,140,2013-03-28 19:35:00
2:56 PM,37.4,26.6,65,30.24,10.0,SE,12.7,-,N/A,,Clear,140,2013-03-28 19:56:00
3:15 PM,37.4,26.6,65,30.23,10.0,SE,11.5,-,N/A,,Clear,140,2013-03-28 20:15:00
3:36 PM,37.4,28.4,70,30.23,10.0,SE,10.4,-,N/A,,Clear,140,2013-03-28 20:36:00
3:56 PM,39.2,28.4,65,30.22,10.0,SSE,11.5,-,N/A,,Clear,150,2013-03-28 20:56:00
4:15 PM,39.2,28.4,65,30.22,10.0,SE,12.7,-,N/A,,Clear,140,2013-03-28 21:15:00
4:36 PM,39.2,28.4,65,30.22,10.0,SE,12.7,-,N/A,,Clear,140,2013-03-28 21:36:00
4:56 PM,39.2,28.4,65,30.23,10.0,SSE,9.2,-,N/A,,Clear,150,2013-03-28 21:56:00
5:15 PM,39.2,28.4,65,30.23,10.0,SSE,11.5,-,N/A,,Clear,160,2013-03-28 22:15:00
5:36 PM,39.2,28.4,65,30.23,10.0,SSE,9.2,-,N/A,,Clear,150,2013-03-28 22:36:00
5:56 PM,39.2,28.4,65,30.22,10.0,SSE,10.4,-,N/A,,Clear,150,2013-03-28 22:56:00
6:15 PM,37.4,28.4,70,30.22,10.0,SE,8.1,-,N/A,,Clear,140,2013-03-28 23:15:00
6:36 PM,37.4,28.4,70,30.22,10.0,SSE,6.9,-,N/A,,Clear,150,2013-03-28 23:36:00
6:55 PM,37.4,28.4,70,30.22,10.0,SSE,9.2,-,N/A,,Clear,150,2013-03-28 23:55:00
7:15 PM,37.4,28.4,70,30.23,10.0,SE,6.9,-,N/A,,Clear,140,2013-03-29 00:15:00
7:36 PM,35.6,28.4,75,30.23,10.0,SE,5.8,-,N/A,,Clear,140,2013-03-29 00:36:00
7:55 PM,35.6,28.4,75,30.23,10.0,SE,5.8,-,N/A,,Clear,130,2013-03-29 00:55:00
8:15 PM,35.6,28.4,75,30.23,10.0,SE,5.8,-,N/A,,Clear,140,2013-03-29 01:15:00
8:36 PM,33.8,28.4,81,30.23,10.0,SSE,3.5,-,N/A,,Clear,160,2013-03-29 01:36:00
8:55 PM,33.8,28.4,81,30.24,10.0,SSE,3.5,-,N/A,,Scattered Clouds,150,2013-03-29 01:55:00
9:15 PM,35.6,28.4,75,30.24,10.0,SSE,3.5,-,N/A,,Mostly Cloudy,150,2013-03-29 02:15:00
9:36 PM,33.8,28.4,81,30.24,10.0,SSE,3.5,-,N/A,,Mostly Cloudy,160,2013-03-29 02:36:00
9:55 PM,33.8,28.4,81,30.24,10.0,Calm,Calm,-,N/A,,Overcast,0,2013-03-29 02:55:00
10:15 PM,33.8,28.4,81,30.24,10.0,SE,4.6,-,N/A,,Mostly Cloudy,130,2013-03-29 03:15:00
10:36 PM,33.8,28.4,81,30.24,10.0,SE,3.5,-,N/A,,Mostly Cloudy,140,2013-03-29 03:36:00
10:55 PM,33.8,28.4,81,30.24,10.0,SE,4.6,-,N/A,,Mostly Cloudy,140,2013-03-29 03:55:00
11:15 PM,33.8,28.4,81,30.23,10.0,SE,4.6,-,N/A,,Mostly Cloudy,140,2013-03-29 04:15:00
11:35 PM,33.8,28.4,81,30.23,10.0,SE,3.5,-,N/A,,Mostly Cloudy,140,2013-03-29 04:35:00
11:55 PM,33.8,28.4,81,30.23,10.0,Calm,Calm,-,N/A,,Mostly Cloudy,0,2013-03-29 04:55:00